Date,TemperatureHighF,TemperatureAvgF,TemperatureLowF,DewpointHighF,DewpointAvgF,DewpointLowF,HumidityHigh,HumidityAvg,HumidityLow,PressureMaxIn,PressureMinIn,WindSpeedMaxMPH,WindSpeedAvgMPH,GustSpeedMaxMPH,PrecipitationSumIn
2013-1-1,28.0,22.1,12.8,23.7,15.6,6.9,85,76,61,30.26,30.09,10,3,10,0.03
2013-1-2,34.5,21.8,9.7,25.4,14.1,3.6,86,73,54,30.24,30.13,7,2,7,0.02
2013-1-3,39.7,30.2,18.9,28.3,22.5,12.8,86,73,53,30.37,30.19,8,2,8,0.08
2013-1-4,40.8,29.7,17.6,27.9,20.7,11.6,87,70,49,30.38,30.26,7,2,7,0.06
2013-1-5,40.1,35.0,26.8,35.2,29.0,20.3,86,79,66,30.26,30.08,7,3,7,0.11
2013-1-6,38.3,31.7,22.5,31.9,22.7,16.6,82,70,54,30.34,30.09,14,3,14,0.01
2013-1-7,48.6,34.9,22.1,28.8,23.3,16.1,84,64,42,30.33,30.10,12,4,12,0.02
2013-1-8,54.3,43.8,31.8,36.7,28.3,23.4,74,56,33,30.15,30.02,13,4,13,0.01
2013-1-9,56.7,47.4,39.4,40.7,34.5,26.4,84,62,37,30.42,30.15,10,2,10,0.00
2013-1-10,49.8,46.4,42.6,47.6,39.1,23.7,93,78,41,30.38,29.76,10,5,10,0.23
2013-1-11,61.9,54.8,46.6,49.7,47.1,43.8,94,77,58,29.83,29.69,15,7,15,0.01
2013-1-12,57.4,43.6,30.4,46.6,32.0,20.4,87,65,42,30.01,29.75,15,6,15,0.09
2013-1-13,30.6,23.7,15.8,26.4,17.3,9.9,86,76,64,30.34,29.93,9,3,9,0.01
2013-1-14,28.4,20.0,12.6,17.3,11.8,6.6,85,71,53,30.46,30.34,8,1,8,0.00
2013-1-15,31.8,22.5,12.9,21.1,14.6,7.0,83,72,53,30.38,30.14,8,2,8,0.00
2013-1-16,41.8,28.9,14.7,26.6,18.3,8.5,83,66,44,30.15,30.00,7,2,7,0.06
2013-1-17,40.5,33.3,25.9,29.5,23.5,19.2,87,68,44,30.44,30.11,16,3,16,3.47
2013-1-18,56.7,40.8,26.1,29.7,25.3,19.5,81,57,30,30.45,30.08,16,6,16,0.02
2013-1-19,60.8,50.3,41.2,36.2,31.5,25.6,63,49,35,30.16,29.93,12,5,12,0.00
2013-1-20,46.0,33.6,25.3,30.5,16.3,9.1,71,49,32,30.32,30.16,10,5,12,0.00
2013-1-21,25.5,20.7,18.0,11.1,3.1,-6.9,72,48,25,30.36,30.30,14,4,14,0.00
2013-1-22,26.1,20.6,17.2,11.0,2.2,-1.5,75,45,34,30.42,30.29,7,2,7,0.00
2013-1-23,45.9,29.1,14.4,21.8,15.6,7.4,79,59,37,30.35,30.12,10,3,10,0.00
2013-1-24,30.0,23.3,14.0,15.2,6.1,1.6,62,48,33,30.52,30.17,15,6,15,0.00
2013-1-25,43.5,35.4,28.4,21.2,16.3,10.5,56,46,35,30.22,30.09,9,3,9,0.00
2013-1-26,45.9,36.3,27.5,22.3,19.4,15.6,72,51,35,30.34,30.19,9,3,9,0.00
2013-1-27,57.4,44.2,34.5,52.4,38.2,17.9,92,80,51,30.21,29.85,16,7,16,0.16
2013-1-28,74.8,64.7,57.0,60.3,56.0,52.3,88,75,54,29.91,29.77,17,6,17,0.00
2013-1-29,69.1,61.8,53.2,61.6,56.0,50.5,92,82,70,29.78,29.43,21,6,21,1.69
2013-1-30,53.1,35.9,26.4,50.8,30.2,16.2,93,80,63,29.93,29.34,16,7,16,0.09
2013-1-31,33.1,23.5,11.5,20.7,11.5,-1.8,75,60,44,30.41,29.93,18,6,18,0.00
2013-2-1,31.1,20.4,9.0,16.4,6.2,-0.8,77,55,40,30.45,30.15,9,3,9,0.00
2013-2-2,41.0,35.5,30.9,29.4,22.6,15.2,77,59,50,30.15,30.00,9,4,9,0.00
2013-2-3,42.6,36.4,31.8,29.3,20.9,10.7,83,55,32,30.21,29.92,15,5,15,0.00
2013-2-4,55.4,41.6,27.9,32.9,27.2,21.3,78,58,38,29.96,29.78,17,4,17,0.00
2013-2-5,55.6,38.7,23.9,32.9,27.0,18.5,87,65,38,30.11,29.89,12,2,12,0.00
2013-2-6,58.5,44.5,27.7,32.0,27.5,22.2,85,55,28,30.17,29.97,12,4,12,0.00
2013-2-7,50.4,46.4,37.9,47.7,39.0,27.9,92,77,44,30.09,29.85,13,4,13,0.30
2013-2-8,38.3,35.8,34.3,33.5,30.1,27.9,85,79,74,30.34,30.09,14,4,14,0.01
2013-2-9,45.9,39.5,34.2,36.7,30.7,28.1,87,71,54,30.30,29.90,12,5,12,0.11
2013-2-10,61.5,49.6,39.9,52.3,38.2,25.3,94,69,29,29.91,29.50,24,8,24,0.41
2013-2-11,49.8,41.2,32.4,27.2,25.2,22.9,72,54,35,30.13,29.83,16,5,16,0.00
2013-2-12,45.0,36.1,27.9,30.1,26.5,21.9,84,69,50,30.14,29.94,8,2,9,0.00
2013-2-13,51.1,42.3,34.2,34.4,30.0,26.6,81,63,42,29.94,29.82,9,3,9,0.00
2013-2-14,53.8,45.2,37.9,33.5,30.7,25.4,79,58,38,30.08,29.81,2,2,2,0.00
2013-2-15,42.3,35.3,27.0,27.0,17.0,8.9,68,49,29,30.29,30.07,2,2,2,0.00
2013-2-16,38.3,29.2,19.2,20.1,14.0,10.3,74,54,32,30.27,30.13,2,2,2,0.00
2013-2-17,55.2,43.0,31.1,30.9,23.6,19.0,64,48,32,30.13,29.82,2,2,2,0.00
2013-2-18,56.3,47.0,31.3,50.6,36.5,20.1,89,67,53,29.97,29.48,15,3,15,0.00
2013-2-19,32.7,28.1,23.6,20.2,12.7,7.9,66,53,37,30.29,29.97,13,5,14,0.00
2013-2-20,29.7,23.9,17.6,14.0,10.9,7.9,71,57,48,30.38,30.22,10,3,10,0.00
2013-2-21,31.8,26.4,23.0,28.8,20.2,12.4,90,78,59,30.24,29.76,14,6,14,0.00
2013-2-22,34.5,30.1,20.7,32.2,24.5,14.9,92,80,63,30.05,29.76,8,3,8,0.01
2013-2-23,35.8,25.1,13.5,25.6,16.4,7.7,89,70,49,30.05,29.96,5,1,5,0.10
2013-2-24,47.9,32.8,14.2,28.1,20.3,8.2,88,62,38,30.07,29.95,9,3,9,0.32
2013-2-25,46.6,37.9,30.9,33.2,28.1,25.0,93,69,44,30.00,29.57,17,6,17,0.33
2013-2-26,36.0,34.8,33.8,33.7,32.7,31.8,94,92,90,29.62,29.34,10,1,10,0.05
2013-2-27,33.1,32.3,31.8,29.9,28.4,27.2,88,85,83,29.92,29.62,0,0,0,0.21
2013-2-28,35.8,33.4,31.5,29.9,27.7,25.7,85,79,72,30.11,29.91,6,0,4,0.13
2013-3-1,35.4,32.3,26.6,28.6,25.6,19.4,83,76,70,30.22,30.08,7,1,7,0.07
2013-3-2,34.0,28.3,21.0,21.9,19.5,14.3,83,70,53,30.27,30.18,10,2,10,0.04
2013-3-3,42.3,29.5,14.0,27.2,19.5,8.2,100,67,46,30.19,29.91,39,4,39,0.29
2013-3-4,52.0,42.6,35.2,34.2,30.3,26.2,76,62,48,29.91,29.68,9,5,9,0.34
2013-3-5,39.9,35.2,32.7,33.3,26.2,19.7,88,70,52,30.19,29.80,22,8,22,0.06
2013-3-6,37.8,32.5,24.8,27.4,21.9,18.6,79,65,52,30.38,30.19,14,4,14,0.00
2013-3-7,40.5,31.8,21.2,39.4,23.3,15.7,100,71,63,30.34,30.29,70,3,70,0.00
2013-3-8,37.0,37.0,37.0,26.0,26.0,26.0,64,64,64,30.33,30.33,4,4,4,0.00
2013-3-9,37.0,37.0,37.0,26.0,26.0,26.0,64,64,64,30.33,30.33,4,4,4,0.00
2013-3-10,56.1,40.9,37.0,51.5,32.5,0.0,92,72,64,30.33,29.62,7,4,7,0.14
2013-3-11,39.9,34.0,31.5,33.7,27.6,21.6,90,78,61,29.84,29.75,10,5,10,0.00
2013-3-12,47.5,36.2,27.7,28.9,24.6,18.6,93,65,41,29.84,29.84,6,6,6,0.00
2013-3-13,43.5,34.3,26.4,23.2,17.2,12.8,67,51,30,29.84,29.84,7,5,7,0.00
2013-3-14,65.8,46.0,28.2,40.5,28.7,19.5,74,53,32,29.84,29.84,4,4,4,0.00
2013-3-15,77.7,56.3,36.0,46.5,39.5,30.4,88,58,27,30.48,29.59,12,4,12,0.00
2013-3-16,64.9,48.2,38.7,46.8,38.3,33.7,85,70,47,29.97,29.58,14,6,14,0.05
2013-3-17,39.4,36.6,34.9,34.6,32.6,29.0,93,85,71,29.98,29.67,13,7,13,0.53
2013-3-18,50.7,41.4,36.1,37.4,31.5,17.8,97,72,38,29.95,29.62,15,5,15,0.04
2013-3-19,48.0,39.2,32.2,30.3,18.4,10.5,77,45,23,30.14,29.95,10,3,10,0.00
2013-3-20,35.4,32.3,25.0,32.5,17.7,7.2,92,57,32,30.22,30.03,11,4,17,0.00
2013-3-21,43.2,31.4,18.1,26.9,15.4,10.0,80,54,30,30.04,29.85,8,2,8,0.00
2013-3-22,43.3,38.7,34.9,28.9,25.0,19.0,70,58,52,29.93,29.87,8,3,8,0.00
2013-3-23,51.7,43.7,37.8,38.4,27.9,23.0,87,55,39,29.94,29.75,15,6,15,0.16
2013-3-24,40.9,33.7,30.9,37.0,31.1,27.8,95,90,86,29.85,29.57,15,7,15,0.10
2013-3-25,36.3,31.1,26.6,30.5,26.0,22.9,90,81,70,30.15,29.84,12,5,12,0.18
2013-3-26,39.9,33.2,26.4,28.2,23.8,20.5,85,69,48,30.28,30.15,9,4,9,0.39
2013-3-27,46.8,36.3,23.5,32.9,26.0,19.0,97,68,43,30.29,30.15,7,2,7,0.09
2013-3-28,60.4,48.6,39.4,39.5,34.8,29.0,74,60,43,30.21,30.09,10,4,10,0.00
2013-3-29,65.1,53.4,40.5,42.6,37.3,31.2,81,57,28,30.14,30.07,10,4,10,0.00
2013-3-30,53.4,50.5,46.4,50.4,45.4,39.3,90,83,65,30.09,29.82,10,3,10,0.20
2013-3-31,66.9,55.7,48.4,49.1,42.1,30.9,96,65,29,29.89,29.80,12,4,12,0.00
2013-4-1,49.3,43.4,36.0,32.9,24.7,12.9,71,49,26,30.17,29.89,13,5,13,0.00
2013-4-2,49.5,39.3,29.5,26.2,20.8,12.7,76,50,26,30.26,30.17,10,3,10,0.00
2013-4-3,53.6,42.9,32.7,25.9,21.5,15.4,75,45,24,30.30,30.14,14,5,14,0.00
2013-4-4,59.2,47.3,34.9,30.9,25.6,20.7,71,45,26,30.15,29.97,9,3,9,0.00
2013-4-5,69.3,53.6,36.9,41.1,34.3,26.6,76,51,31,30.11,29.89,9,3,9,0.00
2013-4-6,74.3,63.6,54.0,48.7,40.1,34.7,53,43,32,29.90,29.62,20,7,20,0.00
2013-4-7,78.8,64.9,49.5,57.6,47.7,41.2,88,58,28,29.83,29.63,13,3,13,0.12
2013-4-8,78.4,68.6,59.4,58.9,56.5,54.1,89,67,44,29.76,29.63,17,6,17,0.06
2013-4-9,77.4,70.7,66.7,61.1,58.4,56.2,71,65,56,29.79,29.68,16,6,16,0.00
2013-4-10,71.1,60.5,47.1,64.2,55.8,44.9,96,85,64,29.79,29.53,18,4,18,1.46
2013-4-11,47.7,41.7,38.1,46.0,37.0,29.5,96,84,67,29.68,29.62,10,4,10,0.04
2013-4-12,45.7,39.8,34.2,35.7,30.6,27.6,83,70,57,29.94,29.66,12,4,12,0.00
2013-4-13,61.3,48.8,34.5,38.9,34.3,30.0,87,60,37,30.00,29.76,8,3,8,0.00
2013-4-14,79.7,65.7,51.8,59.9,46.1,38.2,86,52,27,29.77,29.46,18,8,19,0.17
2013-4-15,63.3,55.9,47.5,59.0,52.5,45.6,96,89,75,29.95,29.65,15,4,15,0.91
2013-4-16,47.8,45.0,42.1,46.3,43.1,39.6,96,93,87,30.08,29.87,15,7,15,0.73
2013-4-17,76.8,55.5,47.7,67.9,52.9,45.3,97,91,75,30.03,29.55,14,5,14,0.00
2013-4-18,72.9,54.2,39.2,65.8,49.3,28.4,96,84,66,29.77,29.44,16,6,16,2.01
2013-4-19,51.4,42.6,35.6,31.1,26.0,19.6,72,54,31,30.00,29.75,19,7,19,0.00
2013-4-20,57.9,46.1,32.2,31.2,27.5,20.1,85,52,24,30.20,30.00,8,3,8,0.00
2013-4-21,67.6,55.8,46.6,40.7,35.8,28.4,60,48,33,30.27,30.10,11,5,11,0.00
2013-4-22,73.2,60.5,47.7,41.4,38.4,33.5,72,47,24,30.15,29.87,17,4,17,0.00
2013-4-23,63.0,40.2,39.0,40.1,37.8,33.2,94,91,43,30.01,29.89,15,6,15,0.05
2013-4-24,53.3,43.5,35.4,37.8,32.1,24.1,94,68,33,30.17,29.98,12,3,12,0.02
2013-4-25,65.8,52.3,38.5,39.2,33.0,25.0,82,52,26,30.26,30.15,10,2,10,0.00
2013-4-26,61.2,54.4,50.5,49.2,44.6,35.3,88,71,48,30.25,30.13,14,5,14,0.11
2013-4-27,53.6,51.6,49.6,51.7,49.4,46.7,94,92,86,30.18,29.89,7,3,7,0.56
2013-4-28,65.0,56.0,50.4,53.4,50.6,48.5,96,83,61,29.93,29.80,7,2,7,0.00
2013-4-29,83.7,67.5,48.9,62.1,54.6,45.4,93,67,39,29.82,29.65,15,5,15,0.00
2013-4-30,85.8,74.8,63.9,60.2,53.9,46.6,82,52,28,29.86,29.69,14,6,14,0.00
2013-5-1,84.4,74.2,61.7,58.1,53.5,48.8,72,50,34,30.00,29.86,13,4,13,0.00
2013-5-2,72.2,51.4,39.7,58.2,44.4,35.6,89,78,59,30.16,29.99,12,6,12,0.14
2013-5-3,41.0,39.2,37.6,38.9,37.1,35.4,96,92,86,30.09,29.76,11,4,11,1.00
2013-5-4,52.2,45.1,38.4,42.8,39.2,36.5,96,81,60,29.95,29.75,9,3,10,0.01
2013-5-5,60.1,52.3,43.0,57.8,48.9,39.8,95,88,71,29.96,29.85,10,2,10,0.13
2013-5-6,71.8,63.2,55.2,56.4,53.6,49.3,96,73,45,29.96,29.88,13,4,13,0.09
2013-5-7,79.0,68.1,55.8,54.5,49.0,40.6,82,54,28,29.98,29.91,12,2,12,0.00
2013-5-8,78.3,65.1,53.8,61.2,54.4,48.4,85,70,39,29.98,29.90,8,2,8,0.00
2013-5-9,74.1,66.7,62.8,63.1,59.2,55.4,92,77,53,29.91,29.77,9,2,9,0.08
2013-5-10,63.9,60.8,54.7,59.1,55.4,50.0,90,83,76,29.96,29.79,9,2,9,0.00
2013-5-11,67.5,57.4,46.6,53.5,41.6,28.8,92,61,25,30.13,29.95,17,4,17,0.00
2013-5-12,63.0,52.5,39.7,39.1,31.8,23.0,81,49,25,30.20,30.08,10,2,10,0.00
2013-5-13,73.8,59.0,39.9,50.2,41.5,34.6,86,56,30,30.14,29.92,10,2,10,0.00
2013-5-14,89.4,74.5,56.8,55.0,50.5,47.4,81,47,24,29.93,29.77,12,3,12,0.00
2013-5-15,86.7,76.9,64.2,64.9,58.1,47.9,70,53,37,29.89,29.77,10,2,10,0.00
2013-5-16,79.5,71.5,64.2,69.7,61.5,52.4,86,71,54,29.88,29.80,10,3,10,0.08
2013-5-17,77.2,69.8,61.7,64.1,60.5,53.3,84,73,62,29.89,29.83,6,2,6,0.00
2013-5-18,83.5,73.6,63.1,67.3,63.7,58.6,91,72,53,29.93,29.78,8,3,8,0.00
2013-5-19,88.3,80.0,71.6,71.9,67.0,61.4,86,66,42,29.84,29.58,15,5,15,0.01
2013-5-20,77.7,71.5,63.7,71.8,65.1,56.8,93,81,61,29.82,29.63,13,4,13,0.73
2013-5-21,74.5,74.5,74.5,68.6,42.2,0.0,82,50,82,29.67,0.00,0,0,0,0.00
2013-5-22,74.5,74.5,74.5,0.0,0.0,0.0,0,0,100,0.00,0.00,0,0,0,0.00
2013-5-23,74.5,74.5,74.5,0.0,0.0,0.0,0,0,100,0.00,0.00,0,0,0,0.00
2013-5-24,74.5,74.5,74.5,0.0,0.0,0.0,0,0,100,0.00,0.00,0,0,0,0.00
2013-5-25,74.5,74.5,74.5,0.0,0.0,0.0,0,0,100,0.00,0.00,0,0,0,0.00
2013-5-26,74.5,74.5,74.5,0.0,0.0,0.0,0,0,100,0.00,0.00,0,0,0,0.00
2013-5-27,74.5,74.5,74.5,0.0,0.0,0.0,0,0,100,0.00,0.00,0,0,0,0.00
2013-5-28,74.5,74.5,74.5,0.0,0.0,0.0,0,0,100,0.00,0.00,0,0,0,0.00
2013-5-29,74.5,74.5,74.5,0.0,0.0,0.0,0,0,100,0.00,0.00,0,0,0,0.00
2013-5-30,74.5,74.5,74.5,0.0,0.0,0.0,0,0,100,0.00,0.00,0,0,0,0.00
2013-5-31,74.5,74.5,74.5,0.0,0.0,0.0,0,0,100,0.00,0.00,0,0,0,0.00
2013-6-1,74.5,72.1,63.5,58.7,16.8,0.0,80,21,54,29.77,0.00,2,0,1,0.01
2013-6-2,64.2,61.9,56.7,57.4,55.2,51.9,86,79,73,30.26,29.77,2,1,2,0.03
2013-6-3,70.5,63.2,56.3,54.0,51.6,47.1,90,68,47,29.95,29.95,1,1,1,0.02
2013-6-4,74.3,65.4,57.0,59.1,55.4,50.9,82,71,54,29.95,29.95,1,1,1,0.01
2013-6-5,73.6,64.4,57.4,65.2,58.9,52.8,92,83,65,29.95,29.95,1,1,1,0.01
2013-6-6,73.6,67.1,61.2,62.7,58.3,52.3,93,75,48,29.95,29.95,0,0,0,0.02
2013-6-7,72.5,64.8,56.3,57.1,54.0,50.0,88,70,47,29.95,29.95,0,0,0,0.00
2013-6-8,76.6,67.0,54.5,59.2,53.8,0.0,87,66,44,29.96,29.90,6,1,3,0.00
2013-6-9,74.5,68.5,65.3,65.8,60.8,57.2,89,77,60,29.94,29.81,4,2,4,0.01
2013-6-10,78.3,70.3,64.2,65.3,62.1,59.7,90,76,59,29.95,29.83,1,1,1,0.06
2013-6-11,88.0,76.0,63.9,72.2,66.1,59.3,88,73,54,29.98,29.89,1,1,1,0.00
2013-6-12,91.4,82.0,71.8,72.2,68.5,65.2,82,65,45,29.95,29.79,1,1,1,0.00
2013-6-13,83.7,76.1,68.9,70.2,61.0,57.4,72,60,46,30.06,29.85,1,1,1,0.00
2013-6-14,84.6,74.1,62.8,65.2,61.6,57.2,86,67,44,30.11,29.99,1,1,1,0.00
2013-6-15,82.8,73.1,69.1,71.9,66.9,62.4,92,81,66,30.12,29.97,1,1,1,0.75
2013-6-16,82.6,74.4,68.4,74.3,68.7,0.0,93,85,74,30.06,29.94,6,1,6,0.30
2013-6-17,79.9,72.7,66.9,72.7,67.8,62.6,93,85,70,30.02,29.94,7,1,7,0.30
2013-6-18,84.4,73.0,63.0,70.6,63.4,59.1,94,74,46,30.03,29.98,34,2,35,0.00
2013-6-19,84.6,74.1,62.8,67.6,62.8,57.1,90,69,40,30.11,30.03,71,7,71,0.00
2013-6-20,88.0,78.5,68.0,69.2,65.4,62.3,85,65,47,30.13,30.04,71,6,71,0.00
2013-6-21,85.5,78.7,73.8,72.6,67.8,64.5,77,69,63,30.11,30.02,68,4,68,0.00
2013-6-22,89.8,82.5,75.4,74.4,70.3,64.8,81,67,52,30.11,29.98,0,0,0,0.00
2013-6-23,89.1,75.8,70.0,74.4,67.4,64.0,88,76,56,30.07,29.96,0,0,0,0.00
2013-6-24,88.2,78.9,67.8,73.8,69.8,64.8,92,75,57,30.08,29.92,0,0,0,0.00
2013-6-25,89.1,82.1,74.8,74.4,71.2,68.2,81,70,57,29.99,29.83,0,0,0,0.00
2013-6-26,91.8,83.0,76.3,76.3,69.3,63.0,80,64,42,29.89,29.79,0,0,0,0.00
2013-6-27,87.8,79.1,69.6,73.7,68.8,63.9,84,72,51,29.98,29.85,0,0,0,0.00
2013-6-28,86.0,78.6,71.6,70.9,62.9,53.1,87,62,34,29.94,29.79,0,0,0,0.00
2013-6-29,81.5,72.8,67.3,64.2,59.6,56.0,80,64,43,29.83,29.73,0,0,0,0.00
2013-6-30,75.7,70.6,66.0,62.7,61.1,57.9,86,72,56,30.00,29.83,0,0,0,0.00
2013-7-1,79.9,71.5,63.9,60.2,56.6,52.4,79,61,40,30.01,29.99,0,0,0,0.00
2013-7-2,79.2,70.4,63.1,59.8,54.8,50.9,78,59,39,30.01,30.01,0,0,0,0.00
2013-7-3,83.5,69.8,59.4,60.6,56.7,53.2,86,66,36,30.11,30.01,2,0,2,0.00
2013-7-4,86.2,73.1,59.7,64.7,58.7,54.2,85,64,34,30.11,30.11,1,0,1,0.07
2013-7-5,84.4,73.1,63.3,67.2,61.9,56.0,90,70,43,30.11,30.04,0,0,0,0.00
2013-7-6,89.4,75.5,64.0,75.6,62.5,51.6,64,64,64,30.04,30.04,0,0,0,0.00
2013-7-7,91.2,80.3,68.9,72.6,31.3,0.0,64,33,64,30.05,30.04,0,0,0,0.00
2013-7-8,85.5,79.0,75.9,0.0,0.0,0.0,0,0,100,30.05,30.05,0,0,0,0.00
2013-7-10,86.4,79.8,73.4,0.0,0.0,0.0,0,0,100,30.05,30.05,0,0,0,1.29
2013-7-11,85.3,76.1,66.9,0.0,0.0,0.0,0,0,100,30.09,30.05,0,0,0,0.00
2013-7-12,83.5,73.2,61.5,61.1,11.8,0.0,76,13,47,30.15,30.06,0,0,0,0.00
2013-7-13,81.5,71.6,61.0,66.7,61.2,55.4,85,71,47,30.06,30.06,0,0,0,0.00
2013-7-14,86.7,76.4,64.9,67.8,63.4,59.8,86,66,46,30.11,30.06,2,0,1,0.00
2013-7-15,88.5,78.0,70.9,72.7,69.0,65.1,85,75,52,30.11,30.11,1,1,1,0.01
2013-7-16,90.9,81.0,72.0,72.6,70.4,67.4,90,72,48,30.11,30.11,1,1,1,0.00
2013-7-17,91.6,82.7,72.9,73.2,70.4,66.9,86,68,45,30.11,30.11,1,1,1,0.00
2013-7-18,94.8,84.1,73.2,72.2,69.3,61.8,86,64,36,30.11,30.11,1,1,1,0.00
2013-7-19,93.6,83.3,73.9,72.0,68.5,65.4,82,63,41,30.11,30.11,1,1,1,0.00
2013-7-20,86.0,78.6,73.0,73.9,69.1,65.0,85,73,62,30.11,30.11,1,1,1,0.02
2013-7-21,82.2,75.1,71.4,70.1,68.0,64.9,90,79,62,30.11,30.11,1,1,1,0.19
2013-7-22,88.9,78.7,68.0,74.2,70.3,65.1,94,77,54,30.11,29.22,1,1,1,0.00
2013-7-23,89.4,79.6,71.8,73.3,68.3,60.6,87,70,50,29.81,29.81,0,0,0,0.01
2013-7-24,82.4,73.5,66.6,61.5,58.5,54.6,80,61,41,29.81,29.81,0,0,0,0.00
2013-7-25,82.4,71.7,60.1,62.9,58.9,54.9,86,66,43,29.81,29.81,0,0,0,0.00
2013-7-26,74.3,70.5,68.2,69.5,65.0,59.1,93,83,64,29.81,29.81,0,0,0,0.31
2013-7-27,73.8,66.9,59.7,66.7,55.8,0.0,92,70,46,30.14,29.81,10,2,10,0.00
2013-7-28,77.5,66.8,54.9,57.7,53.0,46.1,86,64,35,30.10,30.03,5,2,5,0.00
2013-7-29,73.2,67.0,59.2,66.3,61.3,53.9,88,82,72,30.18,30.10,4,0,4,0.00
2013-7-30,83.7,74.6,66.6,71.0,67.0,61.7,87,78,62,30.11,30.00,0,0,0,0.00
2013-7-31,79.2,74.4,66.7,70.4,67.4,61.1,90,79,65,30.11,30.04,0,0,0,0.00
2013-8-1,86.2,74.4,63.3,67.6,62.8,58.0,89,70,39,30.14,30.02,0,0,0,0.00
2013-8-2,78.6,72.7,68.9,72.7,67.2,63.7,90,83,67,30.02,29.92,6,0,6,0.00
2013-8-3,84.4,75.5,70.0,72.0,67.9,62.4,91,78,58,30.17,29.96,11,3,11,0.00
2013-8-4,79.5,72.6,66.0,67.4,63.5,59.3,84,74,54,30.22,30.08,6,2,6,0.00
2013-8-5,83.1,75.5,71.6,73.1,68.7,65.2,86,80,71,30.11,29.89,9,3,9,0.00
2013-8-6,85.8,78.0,72.3,73.3,70.7,67.4,90,79,62,29.97,29.85,9,3,9,0.02
2013-8-7,85.1,78.7,74.7,72.7,70.0,67.6,85,75,63,29.97,29.83,10,2,10,0.00
2013-8-8,82.2,75.1,70.9,70.9,67.5,64.0,84,77,68,30.03,29.93,9,4,9,0.00
2013-8-9,78.6,73.8,69.4,72.1,68.5,64.9,89,84,72,30.13,30.00,6,2,6,0.13
2013-8-10,84.8,75.1,67.3,68.0,60.9,52.8,89,65,36,30.22,30.12,11,3,11,0.01
2013-8-11,87.6,75.0,61.2,62.3,58.4,54.6,84,59,33,30.19,30.07,10,2,10,0.00
2013-8-12,77.7,73.7,69.6,71.6,66.7,59.9,92,79,58,30.11,29.98,14,2,14,0.78
2013-8-13,79.0,71.5,65.8,66.4,61.6,56.8,91,73,49,30.17,30.02,9,3,10,0.00
2013-8-14,74.8,67.1,59.0,57.8,53.8,49.5,85,64,43,30.25,30.15,9,2,9,0.00
2013-8-15,73.8,65.9,59.4,56.7,53.9,50.1,84,67,46,30.21,30.09,8,2,8,0.00
2013-8-16,76.3,67.4,60.1,57.2,54.3,49.2,84,64,40,30.19,30.13,8,2,8,0.00
2013-8-17,80.1,68.8,58.3,59.7,55.5,52.7,84,65,43,30.23,30.14,10,3,10,0.00
2013-8-18,83.3,72.0,60.4,62.8,59.4,54.8,84,66,43,30.22,30.11,9,2,9,0.00
2013-8-19,84.2,73.7,63.3,66.3,61.8,57.4,85,68,47,30.17,30.06,8,2,8,0.00
2013-8-20,87.3,75.9,66.2,67.5,63.0,60.2,84,66,44,30.15,30.06,8,2,8,0.00
2013-8-21,88.5,77.5,67.5,66.9,64.0,61.1,83,65,42,30.16,30.06,10,2,10,0.00
2013-8-22,90.1,80.2,70.7,70.6,67.4,63.8,83,66,44,30.15,30.06,6,1,6,0.00
2013-8-23,91.2,81.5,71.2,70.5,67.5,63.2,85,64,41,30.14,30.06,7,2,7,0.00
2013-8-24,93.4,82.1,72.3,70.9,65.0,56.2,81,59,30,30.23,30.11,9,3,9,0.00
2013-8-25,92.7,80.0,68.4,68.7,62.8,56.8,81,58,33,30.29,30.18,9,2,9,0.00
2013-8-26,92.5,81.2,71.7,71.6,66.9,62.0,84,63,42,30.24,30.10,10,2,10,0.00
2013-8-27,90.9,79.7,74.1,68.4,65.3,61.7,79,63,39,30.11,30.02,9,1,9,0.00
2013-8-28,93.0,80.9,70.0,67.8,63.9,59.6,83,59,35,30.09,30.02,9,2,9,0.00
2013-8-29,95.9,82.9,71.1,71.0,66.3,60.0,82,60,33,30.11,30.00,7,1,7,0.00
2013-8-30,97.2,86.1,76.3,72.7,68.3,63.2,80,58,34,30.02,29.88,7,2,7,0.00
2013-8-31,98.4,86.2,75.7,72.8,69.1,64.7,80,59,34,29.90,29.79,9,2,9,0.00
2013-9-1,90.9,81.4,74.7,73.2,67.9,60.8,83,65,39,29.92,29.81,8,2,8,0.00
2013-9-2,84.6,76.0,68.2,63.3,57.6,52.1,73,54,35,30.04,29.92,11,4,11,0.00
2013-9-3,83.7,71.5,59.5,56.0,51.4,43.9,78,52,26,30.14,30.02,7,2,7,0.00
2013-9-4,87.1,72.1,58.5,58.7,52.9,45.5,79,54,25,30.20,30.09,8,2,8,0.00
2013-9-5,87.6,74.3,62.8,61.5,57.4,54.2,80,58,33,30.24,30.15,8,2,8,0.00
2013-9-6,88.9,76.4,66.0,64.3,57.7,48.6,79,56,26,30.21,30.06,10,2,10,0.00
2013-9-7,93.0,78.2,64.8,70.4,60.8,56.8,83,58,34,30.08,29.94,8,2,8,0.00
2013-9-8,84.2,77.6,72.3,72.8,68.7,63.1,89,75,59,30.06,29.91,13,3,13,1.07
2013-9-9,92.3,81.2,73.6,71.4,67.5,60.5,87,66,37,30.02,29.93,9,2,9,0.00
2013-9-10,92.3,80.6,71.6,68.8,64.4,59.1,83,61,35,30.13,30.01,8,2,8,0.00
2013-9-11,91.8,79.5,68.4,67.6,64.3,61.9,83,62,39,30.17,30.06,5,1,6,0.00
2013-9-12,84.6,77.0,70.2,68.4,62.4,46.3,81,63,37,30.15,30.04,9,3,9,0.00
2013-9-13,75.4,67.8,59.7,52.2,48.6,43.8,74,52,35,30.19,30.10,12,4,12,0.00
2013-9-14,74.7,63.6,50.7,49.9,46.1,42.7,78,55,34,30.19,30.04,7,2,7,0.00
2013-9-15,81.5,68.6,59.2,67.0,56.5,47.7,87,67,45,30.15,30.02,8,3,8,0.29
2013-9-16,68.7,64.2,60.3,64.7,57.5,54.4,88,79,66,30.31,30.15,9,4,9,0.04
2013-9-17,67.8,65.2,61.2,64.9,60.3,54.0,91,84,74,30.26,30.08,3,1,3,0.22
2013-9-18,82.8,73.9,67.6,70.6,67.2,64.1,92,81,58,30.10,29.95,1,1,1,0.20
2013-9-19,87.1,78.8,72.9,71.1,68.3,65.0,82,71,56,30.00,29.86,1,1,1,0.01
2013-9-20,73.9,67.7,58.5,68.6,61.4,52.6,91,81,63,30.01,29.92,1,1,1,0.51
2013-9-21,68.4,60.6,53.8,54.9,50.4,45.7,87,71,48,30.05,29.95,1,1,1,0.00
2013-9-22,71.4,61.2,49.8,53.9,49.2,44.6,87,67,42,30.06,29.95,1,1,1,0.00
2013-9-23,73.8,64.6,54.0,54.0,51.1,48.1,82,63,42,30.04,29.91,1,1,1,0.00
2013-9-24,78.1,67.9,58.3,60.9,56.1,50.6,81,67,49,29.96,29.81,1,1,1,0.00
2013-9-25,73.8,66.9,59.2,64.3,60.1,53.7,91,79,69,29.92,29.83,1,1,1,0.00
2013-9-26,82.2,70.9,60.1,65.5,60.8,55.4,91,72,51,30.03,29.90,1,1,1,0.00
2013-9-27,83.7,73.4,64.6,65.0,60.8,58.5,86,66,44,30.11,29.99,5,1,6,0.00
2013-9-28,79.2,71.2,63.3,71.1,63.5,58.4,87,77,60,30.08,29.95,15,4,15,0.22
2013-9-29,70.2,62.6,55.4,58.4,52.7,47.6,88,72,46,30.13,30.00,8,2,8,0.00
2013-9-30,70.7,61.5,52.5,62.1,56.1,47.0,92,83,73,30.02,29.91,9,2,9,0.00
2013-10-1,79.2,71.2,64.4,68.3,63.8,59.5,90,78,57,30.04,29.94,8,2,8,0.00
2013-10-2,84.7,73.8,67.1,69.4,65.5,61.2,90,76,51,30.09,29.97,12,2,12,0.00
2013-10-3,83.5,76.0,69.4,70.3,66.7,64.6,85,74,57,29.99,29.86,12,5,12,0.00
2013-10-4,86.0,78.0,70.9,68.6,66.9,63.6,86,70,50,29.99,29.89,13,6,13,0.00
2013-10-5,77.9,64.1,52.7,68.4,59.2,47.8,91,84,73,30.00,29.92,10,3,10,0.61
2013-10-6,55.4,51.6,46.6,48.1,43.9,40.1,89,76,60,29.97,29.88,9,3,9,0.01
2013-10-7,66.0,57.3,52.5,51.2,47.2,43.9,82,70,48,30.17,29.96,6,2,6,0.00
2013-10-8,71.4,59.7,47.5,52.1,47.7,42.4,89,67,40,30.22,30.11,9,3,9,0.00
2013-10-9,70.3,59.6,48.2,51.7,47.2,42.0,84,65,41,30.20,30.09,8,2,8,0.00
2013-10-10,74.1,62.6,51.6,56.5,51.9,45.8,86,69,47,30.17,30.00,8,3,8,0.00
2013-10-11,76.1,67.3,58.5,60.7,57.3,52.7,86,71,56,30.02,29.89,13,5,13,0.00
2013-10-12,69.6,64.7,54.5,59.6,52.5,41.5,87,66,37,30.25,29.94,8,3,8,0.04
2013-10-13,68.9,58.0,47.7,44.0,39.2,33.1,81,53,27,30.43,30.25,8,2,8,0.00
2013-10-14,65.7,57.6,49.8,54.1,42.3,37.1,80,58,43,30.36,30.04,8,2,8,0.03
2013-10-15,63.0,60.4,53.2,60.9,54.8,44.9,93,82,68,30.04,29.91,3,1,9,0.28
2013-10-16,55.9,51.1,45.7,46.2,43.2,39.7,85,75,60,30.10,30.00,2,0,6,0.00
2013-10-17,62.1,54.2,48.7,49.1,45.1,40.1,91,73,45,30.02,29.93,2,0,7,0.06
2013-10-18,55.6,50.0,44.7,44.8,40.1,34.8,85,70,46,30.11,29.97,3,0,8,0.06
2013-10-19,55.6,46.8,40.2,41.2,38.9,35.5,90,75,47,30.07,29.95,2,1,8,0.06
2013-10-20,67.8,54.5,43.1,44.9,40.8,38.0,83,63,34,29.97,29.85,9,2,9,0.00
2013-10-21,54.0,49.6,40.3,44.2,37.8,31.4,79,65,44,30.09,29.93,11,2,11,0.00
2013-10-22,61.3,47.6,38.1,49.9,38.4,32.4,85,71,49,30.07,29.82,12,4,12,0.10
2013-10-23,48.0,43.6,37.2,38.7,33.1,26.6,84,67,47,30.18,30.04,12,3,12,0.00
2013-10-24,48.6,43.4,34.5,37.2,30.1,22.9,80,61,38,30.43,30.14,13,4,13,0.00
2013-10-25,54.0,41.5,29.7,33.0,27.4,22.9,83,60,31,30.52,30.19,10,2,10,0.00
2013-10-26,61.2,50.5,41.5,41.8,33.7,27.9,71,54,35,30.19,30.07,10,3,10,0.00
2013-10-27,58.5,44.5,32.7,32.9,29.1,25.0,82,57,30,30.16,30.00,8,2,8,0.00
2013-10-28,65.8,50.3,35.1,41.3,34.3,28.3,86,57,30,30.22,30.05,8,1,8,0.00
2013-10-29,60.1,56.1,52.2,57.4,50.3,40.6,91,82,56,30.22,30.03,8,1,8,0.35
2013-10-30,68.4,64.5,60.3,65.9,62.0,57.4,93,92,90,30.04,29.80,12,4,12,0.19
2013-10-31,64.8,58.6,48.7,61.8,55.9,45.5,94,91,82,29.80,29.46,10,3,10,1.93
2013-11-1,58.8,52.1,46.6,47.2,43.5,39.5,92,74,50,29.92,29.65,8,3,8,0.00
2013-11-2,53.4,48.3,40.3,41.7,39.2,33.6,84,72,53,30.22,29.91,13,3,13,0.00
2013-11-3,57.4,47.2,35.1,40.6,35.7,30.3,88,67,43,30.28,30.08,13,5,13,0.00
2013-11-4,61.2,55.5,51.6,48.1,43.8,37.9,80,65,59,30.20,30.06,13,6,13,0.04
2013-11-5,58.6,57.0,55.0,55.9,53.3,48.1,93,88,72,30.22,29.95,13,6,13,0.51
2013-11-6,60.1,47.6,38.5,58.3,43.6,35.2,94,86,74,30.32,29.90,12,4,12,0.35
2013-11-7,54.7,43.4,34.9,39.5,35.1,31.1,95,74,44,30.40,30.30,8,2,8,0.01
2013-11-8,59.5,46.9,32.7,38.0,33.8,27.9,89,63,40,30.37,30.03,19,6,19,0.00
2013-11-9,65.1,54.2,45.9,39.9,37.8,32.4,76,56,30,30.28,30.05,10,3,10,0.00
2013-11-10,56.1,47.8,41.2,37.3,32.7,26.6,72,57,32,30.44,30.27,8,3,8,0.00
2013-11-11,63.5,47.7,32.5,48.4,37.6,24.5,84,69,49,30.57,30.15,18,6,18,0.03
2013-11-12,36.3,29.5,22.8,24.7,16.7,10.4,77,60,35,30.81,30.56,16,5,16,0.00
2013-11-13,47.3,33.5,19.8,22.5,17.0,12.7,89,55,26,30.71,30.27,13,4,13,0.00
2013-11-14,56.9,44.3,32.2,26.0,20.4,14.4,72,41,20,30.27,30.03,16,6,16,0.00
2013-11-15,57.4,49.7,43.9,46.0,38.1,24.3,84,65,41,30.04,29.88,12,5,12,0.06
2013-11-16,65.1,60.2,52.0,59.5,53.4,45.7,84,78,70,29.88,29.57,21,9,21,0.09
2013-11-17,71.6,63.7,49.8,61.9,44.4,17.6,86,55,16,30.04,29.43,21,8,21,0.07
2013-11-18,54.7,45.9,35.1,38.1,32.2,25.8,81,61,34,30.31,30.04,13,3,13,0.00
2013-11-19,53.4,42.6,32.4,31.3,28.2,24.9,84,59,35,30.34,30.15,10,4,10,0.00
2013-11-20,46.2,43.2,41.2,42.1,34.6,25.3,87,73,49,30.15,29.99,14,4,14,0.22
2013-11-21,52.5,50.3,45.1,49.7,45.8,41.4,90,85,73,30.27,30.04,13,3,13,0.31
2013-11-22,45.1,36.2,32.4,41.9,31.5,26.4,90,83,78,30.57,30.27,13,6,13,0.01
2013-11-23,32.4,26.2,17.8,27.8,12.5,6.0,83,57,35,30.56,30.55,15,7,15,0.00
2013-11-24,30.7,23.2,14.7,14.6,10.9,7.9,78,60,43,30.65,30.40,8,4,8,0.00
2013-11-25,38.8,35.0,30.4,26.9,19.1,14.1,72,53,39,30.40,30.17,8,4,8,0.00
2013-11-26,40.6,31.9,23.5,26.8,20.6,9.7,82,64,45,30.32,30.12,15,5,15,0.00
2013-11-27,31.3,23.9,18.1,14.7,10.5,6.9,70,57,39,30.41,30.23,13,4,13,0.00
2013-11-28,45.5,33.4,23.0,23.8,19.2,13.0,73,57,40,30.51,30.20,8,4,8,0.00
2013-11-29,47.8,35.7,24.3,27.9,22.9,17.3,75,61,44,30.56,30.34,9,4,9,0.00
2013-11-30,57.4,44.0,34.0,39.2,33.0,26.3,79,66,47,30.34,30.08,10,3,10,0.00
2013-12-1,55.6,42.9,31.5,39.3,33.7,27.0,90,71,51,30.14,29.90,6,2,6,0.00
2013-12-2,54.0,44.9,38.5,44.3,37.9,32.1,84,77,69,29.92,29.67,8,3,8,0.00
2013-12-3,59.7,50.1,41.2,50.8,44.3,35.7,93,81,63,29.68,29.58,4,3,4,0.00
2013-12-4,64.6,51.3,32.4,51.6,43.5,24.9,85,75,52,29.94,29.53,4,4,4,0.00
2013-12-5,33.1,25.8,23.4,24.9,13.2,8.9,72,59,50,30.32,29.95,4,4,4,0.00
2013-12-6,24.5,20.4,15.1,10.4,5.9,0.8,62,53,45,30.62,30.30,4,4,4,0.00
2013-12-7,23.9,17.7,10.9,6.6,3.8,2.3,72,55,40,30.71,30.42,4,4,4,0.00
2013-12-8,27.9,24.9,21.2,24.5,18.3,6.4,88,76,51,30.43,30.00,4,4,4,0.00
2013-12-9,27.0,21.7,17.6,23.6,13.4,9.0,87,70,57,30.36,30.11,4,4,4,0.00
2013-12-10,37.2,25.0,13.6,18.0,11.9,5.4,78,58,39,30.32,30.23,4,4,4,0.00
2013-12-11,30.7,23.2,12.2,19.9,10.9,1.5,78,60,36,30.64,30.27,14,4,14,0.02
2013-12-12,42.6,26.1,10.2,19.7,10.8,2.1,78,55,28,30.62,30.24,10,3,10,0.00
2013-12-13,36.9,32.8,25.5,34.0,26.2,15.9,90,77,56,30.24,29.91,8,3,8,0.53
2013-12-14,35.8,31.8,26.4,32.7,28.3,20.8,90,87,80,30.20,29.85,0,0,0,0.00
2013-12-15,37.8,30.3,21.6,32.5,25.9,16.3,88,84,77,30.20,29.99,12,1,12,0.11
2013-12-16,39.6,33.1,25.9,33.7,28.8,22.0,89,84,76,30.15,29.97,6,3,6,0.07
2013-12-17,43.3,34.8,26.6,30.4,26.3,22.1,89,72,45,30.30,30.13,12,3,12,0.03
2013-12-18,55.2,40.1,24.8,35.0,28.3,19.3,86,65,44,30.27,29.90,18,6,18,0.00
2013-12-19,57.4,52.0,45.5,48.5,43.0,34.4,76,71,65,29.91,29.74,13,6,13,0.00
2013-12-20,57.4,44.3,32.2,53.2,39.5,28.2,88,83,74,29.92,29.71,10,4,10,0.01
2013-12-21,34.7,33.6,32.0,31.8,30.6,29.3,91,89,86,29.89,29.57,0,0,0,0.00
2013-12-22,34.3,30.2,24.3,31.9,26.8,19.0,92,87,80,30.34,29.63,0,0,0,0.00
2013-12-23,24.3,17.3,10.9,18.9,11.7,4.0,83,78,71,30.60,30.34,2,0,2,0.00
2013-12-24,24.8,15.3,3.2,20.4,9.7,-3.0,84,78,72,30.60,30.27,0,0,0,0.01
2013-12-25,34.5,30.6,24.8,31.9,27.4,20.1,91,88,82,30.33,30.25,0,0,0,0.00
2013-12-26,44.4,33.6,23.5,36.5,28.6,19.1,93,82,66,30.35,30.23,12,2,12,0.03
2013-12-27,52.2,40.1,30.6,35.7,31.2,26.0,89,72,48,30.38,30.23,8,3,8,0.05
2013-12-28,55.6,44.1,34.0,34.6,30.5,28.2,81,61,39,30.24,29.91,10,4,10,0.00
2013-12-29,42.6,27.9,16.5,31.2,18.1,1.3,77,66,51,30.30,29.90,14,6,14,0.00
2013-12-30,29.5,20.2,11.1,13.3,6.6,1.1,76,56,43,30.34,30.19,8,3,8,0.00
2013-12-31,45.5,35.1,19.8,24.8,21.1,12.9,80,57,43,30.38,30.13,13,4,13,0.00
2014-1-1,43.2,32.5,17.8,28.9,22.2,12.5,80,66,53,30.17,30.02,16,6,16,0.00
2014-1-2,18.0,14.2,4.5,12.8,5.6,-3.5,81,68,54,30.49,30.16,16,4,16,0.01